Location: Arclight Observatory
(36.5667°N, 87.3333°W)
Time: 10:59:12
(UTC-05:00)

ISS - Visible Passes

Search period start: 25 July 2016 00:00
Search period end: 04 August 2016 00:00
Orbit: 401 x 404 km, 51.6° (Epoch: 25 July)

Date Brightness Start Highest point End Pass type
(mag) Time Alt. Az. Time Alt. Az. Time Alt. Az.
25 Jul -1.7 04:42:59 10° NW 04:46:03 37° NE 04:49:07 10° ESE visible
25 Jul -3.1 21:20:30 10° SSW 21:23:35 42° SE 21:25:57 15° ENE visible
25 Jul -0.5 22:57:39 10° W 22:59:03 17° WNW 22:59:03 17° WNW visible
26 Jul -0.6 03:50:23 10° NNW 03:52:59 22° NNE 03:55:36 10° E visible
26 Jul -2.0 20:28:21 10° S 20:30:48 20° SE 20:33:16 10° E visible
26 Jul -1.6 22:04:05 10° WSW 22:07:04 33° NW 22:10:05 10° NNE visible
27 Jul 0.0 02:58:00 10° N 02:59:50 14° NNE 03:01:40 10° ENE visible
27 Jul -3.5 04:33:23 10° NW 04:36:39 84° SW 04:39:54 10° SE visible
27 Jul -3.0 21:10:51 10° SW 21:14:05 68° NW 21:17:20 10° NE visible
27 Jul 0.1 22:49:42 10° NW 22:51:01 12° NNW 22:52:20 10° N visible
28 Jul -2.3 03:41:17 15° NNW 03:43:42 45° NE 03:46:50 10° ESE visible
28 Jul -1.6 05:17:58 10° W 05:19:50 14° SW 05:21:42 10° SSW visible
28 Jul -0.3 21:55:31 10° WNW 21:57:50 18° NNW 22:00:08 10° NNE visible
29 Jul -0.9 04:29:48 11° SSE 04:29:48 11° SSE 04:29:58 10° SSE visible
29 Jul -1.1 21:01:49 10° W 21:04:43 28° NNW 21:07:36 10° NNE visible
30 Jul 0.1 21:47:51 10° NW 21:48:42 11° NNW 21:49:35 10° N visible
31 Jul -0.3 20:53:24 10° WNW 20:55:29 16° NNW 20:57:34 10° NNE visible
